Torna al catalogo

STARLINK-35635

AttivoComunicazioniVLEO
NORAD 66161·PAYLOAD·🇺🇸 United States

Lanciato Oct 25, 2025 da Cape Canaveral Space Force Station

Loading…

Prossimi Passaggi (prossime 24 ore)

TLE

AggiornatoSource: CelesTrak SupGP

Epoca: Sep 14, 2026, 22:47 UTC

1 66161C 25240R   26257.94979167  .00050684  00000+0  14978-2 0  2577
2 66161  53.1566 261.7448 0001266  85.5811 248.4359 15.34358000    18

Traccia STARLINK-35635 in tempo reale con AllMySat

Download on the App Store